Starlink 31018

operational
NORAD ID: 58635 Int'l Des: 2023-203 Owner: SPXS Country: US Constellation: starlink
LEOCIRCULAR

About Starlink 31018

Description loading...

Live Position

Loading 3D Globe...

Upcoming Passes

Altitude History

Altitude vs Time

uPlot chart will show altitude changes over time

Two-Line Element Set

1 58635U 23203T 25303.73867588 -.00001891 00000-0 -59224-4 0 9999
2 58635 42.9996 81.2863 0001438 266.9503 93.1184 15.27570928104910
Epoch: Oct 30, 2025 • Age: 26 hours

Current Status

Altitude 487.2 km
Velocity 7.63 km/s
Sub-Earth Point 43.13°N, 160.94°W
Launch Date Dec 23, 2023
Age 1.8 years
Type internet

Technical Details

Classification Payload
Mass 730.00 kg
Dry Mass 700.00 kg
Total Mass 730.00 kg
Length 0.30 m
Diameter 4.10 m
Span 29.00 m
Shape Box + pan
Manufacturer SPXS
Bus Type Starlink V2M
Phase Status In Orbit
Owner/State SPXS/US

Large Constellations

Loading constellations...